Wind_Speed
60 62 63 64 65 66 68 70 73 74 76 76 75 74 73 71 70 69 68 67 66 66 67 69 70 71 71 71 70 70 69 68 70 73 79 84 82 79 77 75 74 74 74 73 72 72 72 71 71 71 70 69 69 68 66 66 65 65 65 64 64 62 58 57 57 56 56 56 55 55 54 54 54 55 55 56 56 57 57 57 56 56 57 57 57 57 56 55
60 61 63 64 65 66 67 68 70 73 75 77 78 78 77 75 73 72 70 69 68 67 66 67 69 70 71 71 71 70 69 68 67 68 76 81 80 79 78 76 76 76 75 75 73 72 71 70 70 71 70 70 70 68 67 66 66 66 66 66 65 61 58 58 57 56 56 55 55 54 54 53 54 54 55 55 56 57 57 57 56 56 57 57 57 57 56 54
60 61 63 64 65 67 67 68 69 71 73 76 78 79 79 78 77 75 73 72 70 69 68 68 68 68 69 69 70 70 70 69 66 69 74 74 75 78 79 79 78 78 77 75 73 72 71 70 69 70 70 70 70 69 68 67 67 67 67 67 65 60 58 58 57 56 55 55 54 54 54 53 53 54 54 55 56 57 57 57 56 56 56 56 56 56 56 55
61 63 63 64 65 66 67 69 70 71 72 74 77 79 80 81 80 78 76 74 73 72 71 70 69 68 68 68 69 69 70 68 67 71 73 70 70 73 77 80 80 79 77 76 74 72 72 70 70 69 69 70 70 69 68 68 68 69 69 67 64 59 58 58 57 56 55 55 55 54 54 53 53 53 54 54 55 56 57 57 56 55 55 55 55 56 56 56
62 63 64 64 64 65 66 68 70 71 72 73 76 78 80 81 81 81 79 77 76 75 73 72 71 69 67 67 68 68 69 68 68 72 72 69 68 69 73 77 79 80 77 76 75 73 72 71 70 70 70 69 69 68 68 69 69 69 69 66 61 59 59 58 57 56 55 55 55 54 53 53 53 53 53 53 54 55 56 56 55 54 54 54 54 56 57 58
63 63 63 63 64 64 65 67 69 71 72 73 74 76 78 80 81 82 81 80 79 78 76 75 73 70 69 68 67 67 67 67 69 72 72 70 68 68 70 72 75 78 77 77 76 74 73 71 71 71 71 70 69 68 68 68 67 68 67 63 60 59 59 58 57 56 55 54 54 53 53 53 52 52 52 53 54 55 56 56 55 54 53 54 54 56 57 59
64 63 63 63 64 64 65 66 68 70 72 73 74 75 77 79 80 81 82 82 82 81 79 78 76 73 71 69 67 66 65 66 70 72 72 70 68 67 68 68 70 73 76 77 76 75 73 72 72 72 71 70 68 68 67 65 65 65 64 61 60 58 58 57 55 54 54 53 53 53 53 53 52 52 53 53 54 55 55 55 54 54 53 54 55 56 58 59
64 64 64 64 64 65 65 66 68 70 72 73 74 75 76 77 79 80 81 82 83 84 82 81 78 76 73 71 69 66 65 69 71 70 70 70 68 67 67 67 67 69 73 75 76 75 73 73 73 72 71 69 68 68 66 63 63 63 62 60 58 57 56 55 54 53 53 53 53 53 53 53 52 52 53 53 53 53 54 55 55 54 54 55 55 57 58 59
65 65 65 65 65 66 67 68 68 70 71 73 74 75 75 76 77 79 80 82 83 84 85 84 81 79 76 73 70 67 68 73 71 68 68 69 69 68 67 67 66 67 69 72 74 74 73 73 73 72 71 70 68 67 64 61 62 62 60 58 56 55 54 53 52 53 53 53 53 54 54 53 53 53 52 51 52 54 55 55 55 55 55 55 56 58 59 59
66 66 66 66 66 67 68 69 69 70 71 72 74 75 75 75 76 77 79 81 83 84 85 85 84 82 78 75 72 70 73 75 70 67 69 69 69 68 67 67 67 66 67 68 71 73 74 74 73 72 71 69 68 65 61 59 61 61 58 55 54 53 53 52 52 53 53 53 54 54 54 54 53 52 51 52 53 55 55 54 55 55 55 56 57 58 59 59
67 67 68 68 68 69 69 70 71 71 72 72 73 74 75 74 74 75 77 79 81 83 84 84 85 83 81 78 74 74 77 76 71 70 69 68 68 68 67 67 67 66 65 66 69 73 75 75 73 71 69 68 67 64 59 59 60 59 56 54 53 54 53 52 53 53 53 54 55 54 53 54 52 51 52 52 54 54 54 54 55 55 55 56 57 58 59 59
69 69 69 69 70 70 71 71 72 72 72 73 73 73 74 74 73 74 75 77 79 82 83 83 83 83 82 79 77 79 81 77 74 72 71 69 68 68 67 67 67 66 64 65 67 71 74 75 73 71 69 68 66 62 58 59 59 58 55 53 54 54 53 53 54 54 54 54 54 53 53 54 52 52 53 52 53 54 54 54 55 55 56 56 57 59 59 58
70 70 70 70 71 71 72 72 73 73 73 73 72 73 73 73 73 72 73 75 78 80 81 82 81 80 80 79 81 83 82 79 76 75 74 72 70 69 68 67 67 66 65 66 67 68 71 73 73 72 70 67 65 61 58 59 59 58 55 53 54 54 55 55 55 54 54 54 53 52 54 53 52 52 52 51 52 53 54 55 56 57 57 58 58 59 59 57
71 71 71 72 72 72 73 73 73 73 73 72 72 72 72 72 71 71 71 73 77 78 80 80 79 78 76 78 82 83 80 80 78 78 78 76 74 72 70 69 69 68 67 68 67 67 68 70 72 72 70 67 64 60 59 60 60 58 54 53 54 55 56 56 55 54 53 52 52 52 53 53 52 51 50 51 52 53 55 56 57 58 58 58 58 59 58 56
71 71 72 73 73 73 73 73 73 73 72 72 71 71 71 70 69 70 71 72 75 77 77 78 78 77 75 78 81 79 78 78 79 81 81 79 77 75 72 71 69 68 68 68 67 66 66 67 69 70 70 69 65 60 60 62 61 58 54 54 56 57 58 56 54 53 52 52 51 51 53 52 50 50 50 51 53 54 56 56 57 58 58 58 58 58 58 55
71 72 72 73 73 73 73 73 72 72 72 71 71 70 69 68 67 68 69 70 73 75 76 76 77 77 77 79 79 75 75 77 80 82 81 80 79 77 74 71 69 69 69 68 66 65 65 64 66 69 70 70 65 62 62 62 61 58 55 56 58 59 58 56 54 52 51 50 50 51 51 50 49 50 51 53 54 55 56 56 56 57 57 57 57 57 56 54
71 72 72 72 72 72 72 71 71 70 70 70 69 68 67 66 66 66 67 68 70 73 74 75 76 76 77 79 78 75 76 78 80 80 79 80 80 78 76 72 70 70 69 67 65 64 63 62 63 66 68 69 67 65 64 62 61 58 57 59 61 60 58 55 53 51 49 50 51 50 49 49 50 52 53 53 54 54 55 55 55 56 56 56 57 56 55 52
70 71 71 71 71 71 70 69 69 68 68 67 66 65 64 65 64 63 64 66 67 70 72 73 75 75 76 79 78 77 78 78 78 78 78 78 78 78 77 74 72 70 69 66 64 63 62 61 62 63 65 68 68 67 65 64 63 62 61 61 61 59 56 53 51 49 49 51 51 50 49 50 52 52 52 53 53 53 54 54 54 55 55 56 56 55 53 51
69 70 70 69 69 68 66 65 65 65 64 64 63 63 63 63 62 61 62 63 64 67 70 73 74 75 78 80 78 77 78 77 77 77 77 76 76 77 77 75 72 70 67 64 62 61 60 60 60 60 62 65 68 69 68 68 69 66 64 61 60 58 54 51 50 50 51 52 52 52 51 51 52 51 51 52 52 52 53 53 53 53 54 55 55 54 52 50
68 68 67 66 65 63 62 61 61 61 61 61 61 61 61 61 59 58 59 60 62 65 67 71 74 76 78 78 77 77 78 78 77 76 76 75 74 77 78 75 72 69 66 63 61 60 58 58 58 58 60 64 69 71 71 72 71 68 64 61 59 57 52 51 51 51 52 54 54 53 52 51 50 50 51 51 51 51 52 52 52 53 53 53 53 52 51 49
65 64 63 61 59 58 57 58 58 58 59 59 59 59 58 58 57 57 59 61 62 63 65 69 71 74 76 76 76 77 78 77 76 76 76 74 74 76 77 74 71 68 65 63 61 59 57 57 58 59 61 65 70 72 74 74 72 68 64 61 59 55 53 53 52 52 54 55 55 53 51 50 49 49 50 50 50 50 51 51 52 53 53 53 52 51 50 48
61 59 57 56 55 55 55 56 56 57 57 57 57 57 55 56 57 58 61 63 63 62 64 66 68 71 74 74 75 76 77 77 77 76 75 74 74 76 76 73 70 68 65 63 61 59 56 56 59 61 62 65 69 72 74 74 71 67 64 62 59 55 55 55 53 53 56 57 55 53 51 49 48 49 50 49 50 50 50 51 53 53 52 51 49 48 47 47
55 53 52 53 53 53 54 55 55 56 56 56 56 55 55 57 59 60 63 64 64 63 62 63 66 68 70 71 73 74 75 76 76 75 74 73 74 76 75 72 69 67 65 63 61 59 57 57 59 61 63 65 67 70 72 71 69 67 65 62 59 57 57 56 54 54 57 57 55 52 49 48 48 49 49 49 49 50 50 52 53 53 52 50 48 46 45 44
50 50 50 51 52 53 55 56 56 57 57 56 56 56 57 59 60 62 64 65 64 63 62 63 63 63 64 66 67 69 72 74 73 73 72 73 75 75 73 70 68 66 65 64 63 61 59 59 61 62 63 64 65 67 69 69 68 67 65 62 60 59 58 55 54 55 56 56 54 51 49 48 49 49 49 49 49 50 51 51 52 52 52 50 48 46 45 44
48 48 49 51 53 55 56 57 58 58 58 58 59 59 60 61 62 63 65 65 65 64 64 62 61 60 59 58 60 64 68 68 69 70 70 72 74 72 70 68 66 65 65 65 64 62 60 61 63 64 63 62 62 65 67 68 68 67 65 63 62 60 58 56 55 55 55 55 53 50 49 48 49 49 49 50 50 50 50 50 51 51 50 49 47 46 45 45
46 48 49 50 51 52 53 53 54 55 57 59 61 63 63 63 64 65 65 66 65 65 64 63 62 60 56 56 59 62 62 62 64 65 67 70 70 70 69 67 66 66 66 66 65 62 62 64 64 64 62 61 61 64 67 68 67 65 64 64 62 60 58 57 56 55 55 54 52 50 49 49 49 49 50 50 50 49 49 50 50 49 48 46 45 44 44 44
46 48 48 47 45 45 45 46 47 49 52 56 60 63 66 67 67 66 65 65 65 65 65 64 63 59 58 61 61 59 58 59 59 60 63 66 65 65 65 65 65 66 66 66 64 63 63 65 63 62 61 60 61 65 67 67 65 64 64 64 62 60 58 57 55 55 54 53 52 50 50 49 49 50 50 49 49 49 49 49 48 47 46 45 44 43 43 43
46 45 43 40 38 37 38 40 42 44 47 50 55 59 64 67 67 66 65 65 65 65 66 66 64 61 63 64 61 59 61 59 57 58 62 63 62 62 62 63 64 65 66 65 63 64 65 64 62 60 60 60 62 66 68 67 65 64 65 64 61 60 58 56 55 54 54 52 51 50 49 49 49 50 50 49 48 49 48 48 47 46 45 44 43 43 42 42
44 40 36 34 33 32 34 36 38 40 43 46 50 54 58 61 64 65 66 66 67 67 67 67 65 64 65 64 62 64 63 60 59 60 61 61 59 60 61 63 64 65 65 65 66 67 66 63 62 61 60 61 65 69 69 66 65 66 66 63 61 60 58 57 55 54 53 52 51 50 49 49 49 48 48 48 48 48 47 47 46 44 43 42 42 42 42 42
39 34 31 30 29 29 31 32 34 36 38 41 44 47 50 53 58 63 67 69 70 70 70 69 67 67 68 67 66 67 64 62 62 61 60 60 59 61 63 65 65 64 64 66 68 67 64 62 60 59 60 63 66 68 67 66 67 68 66 62 60 60 58 56 55 53 52 52 50 48 48 49 48 46 46 47 47 47 46 45 45 43 42 41 41 41 41 41
34 30 27 27 27 27 27 28 29 31 33 35 38 41 43 47 51 57 62 67 71 72 71 71 70 69 70 70 69 68 65 65 63 61 61 61 60 62 62 61 61 60 62 65 65 62 60 59 58 59 61 63 64 64 64 65 66 66 63 60 59 59 57 55 54 53 52 51 50 48 48 48 46 45 45 45 45 45 44 43 43 42 41 41 40 40 40 41
29 26 25 24 24 23 23 23 24 26 28 30 33 36 39 42 46 50 55 61 66 70 71 72 71 72 73 74 73 70 68 66 64 63 63 62 61 61 59 58 57 57 60 62 60 57 57 58 58 60 62 61 62 62 62 63 63 61 59 58 58 58 56 55 53 52 51 50 49 48 48 46 45 44 43 43 43 43 43 42 42 41 41 41 40 40 41 42
25 23 23 21 20 19 19 20 22 24 26 29 31 33 36 40 43 47 50 53 57 61 64 67 70 74 77 76 74 72 70 68 66 65 65 64 63 62 60 59 58 58 60 61 59 57 57 59 59 61 60 59 60 61 61 62 61 59 58 58 58 57 56 54 52 50 50 50 48 47 47 46 44 43 42 41 41 41 42 43 42 41 40 40 40 41 42 44
22 21 19 18 16 16 16 19 21 23 26 28 30 33 37 39 42 44 46 49 51 53 56 60 64 70 74 74 73 72 70 69 69 68 66 65 64 64 62 60 60 61 63 62 60 59 59 59 59 59 59 59 60 61 62 62 62 61 61 62 61 59 56 54 52 51 50 48 47 48 48 46 44 42 40 39 40 41 43 44 43 42 40 40 41 43 44 44
20 18 16 15 14 14 17 20 22 24 26 29 32 35 37 38 39 41 43 46 48 49 52 55 58 62 65 67 69 70 70 69 69 69 66 64 62 62 62 62 62 63 63 62 61 61 61 59 59 59 59 60 62 63 64 63 63 63 63 63 61 58 56 54 53 51 49 48 49 50 48 45 42 40 39 40 41 43 45 45 44 42 41 42 43 44 44 44
17 16 14 13 13 15 18 20 23 27 30 33 35 37 38 40 42 43 45 46 46 46 47 50 52 53 55 57 61 64 66 67 67 66 64 62 60 59 58 60 62 63 64 63 62 61 61 60 60 60 61 62 63 64 64 64 64 63 63 62 60 58 56 55 53 51 51 51 51 49 46 43 41 40 40 42 43 44 45 45 44 43 43 44 45 45 46 47
16 14 13 13 16 18 20 24 28 32 35 37 39 41 44 46 47 47 47 46 45 45 45 46 46 46 46 49 52 55 59 61 62 61 60 60 60 59 58 60 62 63 64 64 63 61 61 61 61 61 62 63 64 64 64 64 64 64 64 64 62 59 57 56 54 52 51 51 49 47 44 42 41 41 42 44 44 44 45 45 45 45 45 45 46 46 47 48
14 13 13 17 20 22 26 30 34 38 39 40 42 45 48 49 49 49 47 46 47 46 46 45 44 42 42 45 50 54 57 58 58 59 60 61 60 60 63 65 65 64 63 63 61 60 60 60 61 61 62 63 64 64 65 65 64 64 64 64 61 58 57 56 54 52 51 51 48 46 44 43 43 43 44 45 45 45 45 45 45 46 46 46 47 48 48 49
13 14 17 21 25 29 32 36 39 41 42 43 46 49 51 51 52 51 50 50 50 49 48 46 44 43 43 47 53 57 59 59 59 60 60 62 63 64 66 68 67 65 62 60 59 58 58 59 60 61 62 63 63 64 64 64 64 63 62 61 59 57 56 55 53 52 51 50 48 46 46 46 45 44 45 46 46 45 45 46 46 46 46 47 48 48 49 50
15 18 22 26 30 34 38 41 43 44 45 48 51 52 53 53 53 53 54 54 53 52 51 49 47 46 45 47 53 56 58 59 59 59 60 61 64 66 67 68 66 62 59 59 58 58 58 60 61 61 62 62 62 62 63 63 63 62 60 60 59 57 56 54 53 52 50 49 48 47 47 47 46 46 46 46 46 46 46 47 47 47 47 48 49 49 50 51
18 22 26 30 34 38 42 45 46 46 49 52 53 54 55 55 55 56 57 57 55 54 53 51 50 48 46 46 50 52 55 56 56 57 59 61 63 64 64 64 62 59 57 57 58 59 60 61 62 63 62 62 61 62 62 63 61 60 60 60 60 58 56 55 54 52 50 50 50 49 48 49 48 47 46 46 47 48 48 48 48 48 48 49 49 50 51 50
22 27 30 34 37 41 45 47 47 48 51 53 55 56 56 56 57 58 59 57 55 53 52 51 50 49 47 47 47 48 49 50 51 52 54 56 58 59 59 59 58 57 56 56 57 59 60 61 61 62 61 61 61 61 62 61 59 59 60 60 58 57 55 54 54 52 51 51 51 50 50 49 48 47 47 48 49 49 50 50 49 49 50 50 50 50 50 50
27 31 34 37 41 45 47 48 48 50 53 55 57 57 57 57 57 57 56 55 53 51 50 49 48 48 48 48 47 47 48 48 49 50 50 52 53 54 55 56 56 56 55 55 56 58 59 60 59 59 59 59 59 59 59 58 58 58 59 59 57 56 55 55 54 53 52 52 51 51 50 49 49 49 49 49 50 51 52 51 50 50 50 50 50 50 49 50
30 34 37 40 44 47 49 49 50 51 53 55 56 57 56 54 53 54 54 53 52 51 50 49 49 48 47 47 47 48 48 49 50 50 51 52 52 53 54 55 55 55 55 55 56 57 58 58 57 57 57 57 57 57 56 56 57 58 59 58 57 56 56 55 55 54 53 52 52 52 51 51 52 51 51 51 51 52 53 52 51 50 50 50 50 49 50 51
32 36 40 42 46 48 49 51 53 54 54 55 56 55 53 51 50 52 54 54 53 52 51 51 50 48 47 47 47 47 48 49 50 50 51 51 52 52 53 53 54 54 55 56 56 56 56 56 56 55 55 55 56 55 55 56 57 58 58 58 57 57 56 56 56 55 54 54 54 54 53 53 53 52 52 52 53 53 53 52 51 50 50 50 49 49 51 51
34 39 41 44 46 47 47 51 54 55 55 55 54 53 51 49 50 52 54 54 53 52 52 51 49 47 46 46 46 46 47 48 49 49 50 50 51 52 52 52 53 53 54 56 56 55 55 54 54 55 56 56 57 56 57 58 58 58 58 58 58 58 57 57 57 56 56 56 55 55 55 55 55 53 53 53 53 53 53 51 51 51 50 49 49 50 50 48
37 41 44 46 48 47 47 50 52 54 54 55 53 51 49 49 50 51 52 52 51 50 50 49 47 46 45 44 45 45 46 47 48 49 49 50 50 51 51 51 52 52 53 54 55 55 55 54 54 55 57 57 58 58 59 60 59 59 59 59 59 59 58 58 58 58 57 57 57 57 57 56 55 54 54 53 52 52 52 51 51 50 50 49 50 50 47 45
40 44 46 48 50 50 48 49 51 51 51 51 49 47 46 46 47 48 48 48 48 47 47 46 46 45 44 44 44 44 44 45 46 47 48 49 50 51 51 51 51 52 52 53 54 55 55 55 56 57 58 58 58 59 60 61 60 60 59 60 60 60 60 60 60 59 59 58 58 58 56 56 55 55 54 53 52 51 51 51 51 50 51 51 50 47 45 43
42 45 48 50 51 50 49 49 50 50 48 47 45 44 43 43 44 44 45 46 46 46 46 45 45 45 44 43 43 42 42 43 44 45 46 48 50 51 52 53 53 53 53 54 55 55 55 56 57 58 58 58 59 60 60 61 61 61 61 61 61 61 61 61 61 60 60 59 59 57 56 56 56 55 54 52 51 51 52 52 52 51 51 50 48 45 43 41
44 47 50 51 51 50 50 50 50 49 48 46 45 44 43 43 42 43 44 45 45 46 46 45 45 45 44 43 42 42 42 43 43 44 45 46 47 49 51 52 54 54 55 55 56 56 57 57 57 58 58 59 59 60 60 60 61 61 62 62 62 62 61 61 61 60 60 59 59 58 57 57 57 56 54 53 52 53 53 53 53 52 50 49 47 44 42 39
44 46 49 51 51 52 51 51 51 50 49 48 47 45 44 43 43 43 43 44 45 46 46 46 46 46 44 42 41 41 42 42 42 43 44 45 46 48 49 50 52 53 54 55 55 56 57 57 58 59 59 60 60 60 60 61 61 62 62 62 61 61 61 61 61 61 60 60 59 58 57 57 57 55 54 53 53 53 54 54 53 51 50 48 46 43 40 39
44 46 49 51 53 53 53 52 51 51 50 49 47 45 43 42 42 42 42 43 43 44 44 44 45 45 44 42 41 40 40 40 41 42 43 45 46 47 48 49 50 51 52 53 54 55 55 56 57 59 60 60 60 61 61 62 62 62 62 61 61 62 62 62 61 61 60 59 58 58 57 57 56 55 54 54 54 54 54 54 53 52 50 48 45 42 39 39
Wind_Direction
266 265 264 263 262 262 261 260 259 258 256 255 254 253 252 251 250 249 247 246 244 243 242 242 243 243 243 244 243 243 243 242 241 241 241 240 240 241 242 243 243 243 243 242 242 243 243 244 245 246 246 247 248 248 249 250 250 251 251 252 252 253 253 254 255 256 257 259 260 260 261 261 261 261 262 263 264 265 266 267 268 270 271 273 273 274 274 275
268 267 266 264 263 262 261 261 260 259 257 255 254 253 252 251 250 250 248 247 246 244 242 241 241 241 242 242 242 242 242 241 241 240 240 240 240 240 241 241 242 242 242 242 242 242 243 244 245 246 247 247 248 249 249 250 251 251 252 252 253 253 254 255 255 256 258 259 260 261 261 261 261 262 262 263 264 265 266 267 268 269 271 272 273 274 275 275
270 269 268 266 265 264 262 261 260 259 258 256 254 253 252 251 250 249 249 248 247 246 244 242 241 240 240 240 240 241 241 240 240 239 240 240 239 239 239 240 240 241 242 242 242 242 243 243 244 246 246 247 248 248 249 250 250 251 252 252 252 253 254 255 256 257 258 259 260 260 260 261 261 262 263 264 265 265 266 267 268 269 271 272 274 275 275 275
271 270 269 268 266 265 264 262 261 259 258 256 255 253 251 250 249 248 248 248 247 247 246 244 242 240 239 238 239 239 239 239 238 239 240 239 239 239 238 238 239 240 241 242 242 242 242 243 243 245 246 246 247 247 248 249 250 251 251 252 253 254 255 256 256 257 258 258 259 259 259 260 261 262 264 265 265 266 267 268 269 270 271 273 274 275 275 275
271 270 269 268 267 265 264 263 262 260 258 256 255 253 252 250 249 247 247 247 247 247 246 246 244 242 240 238 238 238 238 238 237 239 239 239 238 238 238 238 238 239 240 241 241 241 242 242 243 244 245 246 246 247 247 248 249 250 251 253 255 255 255 256 257 257 258 258 258 258 259 260 261 262 263 264 265 266 268 269 270 271 271 273 274 275 275 275
271 270 269 268 267 265 264 263 262 261 259 257 255 254 252 250 249 247 246 245 245 246 246 246 245 244 242 240 238 237 237 237 238 239 238 237 237 237 238 238 238 238 239 240 241 241 241 241 242 242 243 244 245 246 247 248 249 251 253 254 255 255 255 256 257 257 257 257 258 258 259 259 260 261 262 263 265 267 269 270 271 271 272 273 273 274 274 275
270 269 268 268 267 266 264 263 262 261 260 258 256 254 252 251 249 247 245 244 244 244 244 245 245 244 244 242 240 238 237 238 237 238 237 236 236 236 237 237 238 238 237 238 239 240 240 241 241 242 242 243 244 246 247 248 250 252 253 254 254 254 255 256 256 256 256 257 257 257 258 259 260 260 261 263 265 268 269 270 270 271 272 272 273 273 274 275
269 269 268 268 267 266 265 264 262 261 259 258 257 254 252 250 249 247 245 244 243 242 243 243 244 244 244 243 243 241 241 240 237 237 237 236 235 234 235 236 236 237 236 237 238 238 240 240 241 242 242 243 243 245 246 248 250 251 252 253 253 254 254 255 255 255 255 255 256 257 258 259 259 260 261 264 267 268 268 269 270 271 272 273 273 274 274 275
269 268 268 268 267 266 265 264 262 261 259 258 257 256 253 250 249 247 245 244 242 242 241 242 242 243 243 243 243 243 243 243 238 237 238 236 234 233 234 235 235 236 236 236 237 237 238 240 241 241 242 242 243 244 246 248 250 251 251 252 253 253 253 253 253 252 253 254 255 256 257 259 260 261 263 265 266 267 268 270 272 273 273 274 275 276 276 277
269 269 268 268 267 266 265 264 262 261 260 258 257 256 254 251 248 247 245 243 242 241 240 240 240 241 241 241 242 243 244 244 240 238 238 236 234 233 233 233 234 235 235 236 236 235 236 237 238 240 241 242 243 244 245 247 248 250 250 251 251 250 250 250 250 251 252 253 254 256 258 259 260 263 264 265 266 267 269 271 273 275 276 277 277 277 278 277
269 269 269 268 268 267 265 264 263 261 260 258 257 256 254 251 248 246 244 243 242 240 240 239 239 239 240 240 240 240 242 244 242 240 240 237 234 233 233 233 233 234 234 235 235 234 234 236 237 239 240 241 242 243 244 245 247 248 248 249 248 247 248 248 248 249 250 251 253 256 258 259 262 264 264 266 268 270 271 273 275 276 278 279 279 279 278 278
270 270 269 268 268 267 266 264 263 261 260 258 257 256 254 252 248 245 243 243 241 240 239 239 238 238 238 239 238 239 240 242 242 242 242 239 236 234 233 232 232 232 233 234 234 234 234 234 235 237 238 240 241 242 242 244 245 246 246 246 246 246 246 246 246 248 250 252 255 256 258 260 263 264 265 268 270 272 274 275 277 278 279 279 279 279 279 279
271 270 269 269 268 267 266 264 263 261 260 258 257 255 253 250 248 246 243 241 241 239 238 237 237 237 237 237 238 238 239 240 241 242 243 241 238 235 233 231 231 230 230 232 233 233 233 234 234 235 237 239 240 241 241 242 243 244 243 243 244 244 244 244 245 247 250 252 254 256 259 262 263 265 267 270 272 274 275 277 279 280 280 280 279 279 279 279
271 270 269 268 268 267 265 264 262 261 259 258 256 254 252 249 247 246 244 241 239 238 237 236 236 236 236 237 237 237 238 239 239 240 241 241 239 237 234 231 230 229 229 230 231 232 233 233 233 234 235 237 238 239 239 240 241 242 241 241 242 243 242 243 244 247 249 252 254 257 260 262 264 266 269 271 273 275 276 279 280 281 281 281 281 281 281 280
270 269 269 268 267 266 265 264 262 260 258 257 255 253 251 248 246 245 243 240 238 237 236 235 234 234 234 235 236 236 236 237 237 237 238 239 239 238 235 232 230 229 229 230 231 232 233 233 233 233 233 234 236 236 237 239 240 241 240 240 241 241 241 242 244 246 249 252 255 258 260 263 265 267 269 271 272 275 278 280 281 282 282 282 283 282 282 282
270 269 268 268 267 266 265 263 261 259 257 255 254 252 249 247 245 244 242 240 237 236 235 234 233 232 232 234 235 234 234 235 235 235 236 238 239 238 236 233 231 230 229 229 230 231 232 233 233 232 232 232 233 234 236 237 239 240 240 240 240 240 241 242 244 247 250 253 255 257 260 264 266 267 268 270 273 277 280 282 282 283 284 284 284 284 283 283
269 269 268 268 267 266 265 263 260 258 256 254 252 250 248 246 244 242 241 239 236 235 233 232 231 231 231 233 233 233 233 233 233 234 235 236 237 238 237 235 232 230 229 229 229 230 231 232 233 233 232 231 231 232 234 237 238 239 239 239 239 239 240 242 245 248 251 252 254 257 260 262 263 265 268 273 277 280 282 282 283 284 285 286 285 285 284 283
270 270 269 269 268 266 264 262 259 257 255 253 251 248 246 245 243 241 239 237 236 234 232 231 230 229 229 231 231 231 232 233 233 234 235 235 236 237 237 235 233 231 229 228 228 229 230 231 233 233 232 231 230 231 234 236 237 237 237 237 238 239 241 243 245 247 248 250 252 254 256 259 262 267 272 276 280 281 282 282 284 286 287 288 287 286 284 281
271 271 270 269 268 265 263 260 258 255 253 251 249 247 245 244 242 239 237 236 235 233 231 230 228 227 228 229 229 230 231 232 232 233 234 235 234 236 236 235 234 232 229 227 228 228 229 230 232 233 232 230 229 230 232 235 236 235 236 237 238 240 242 244 245 245 246 248 250 251 254 259 264 270 275 278 280 281 281 282 284 287 289 289 288 286 283 280
272 272 271 269 267 264 262 259 256 254 252 249 247 245 243 242 241 238 236 235 233 232 230 229 228 227 227 228 228 229 230 231 231 232 234 233 232 234 235 235 234 232 229 227 227 227 227 229 230 231 230 229 227 228 230 233 235 235 237 238 240 241 243 243 243 243 245 247 249 251 255 261 267 272 276 278 279 279 281 283 285 287 289 288 286 284 281 279
274 272 271 268 266 263 260 258 255 253 250 248 246 244 242 241 239 236 233 232 231 230 229 228 227 227 227 228 228 228 229 230 231 232 233 232 231 232 234 234 233 231 229 227 226 226 226 227 228 229 229 227 226 226 229 232 234 235 237 239 240 241 241 240 241 242 244 247 249 252 257 263 268 272 275 277 278 279 281 283 285 287 289 288 285 282 279 276
274 272 270 268 265 263 260 257 254 252 249 247 245 243 241 239 236 233 230 229 228 227 226 226 226 226 226 226 226 227 228 229 230 230 231 231 230 231 233 233 232 231 228 227 226 225 225 226 227 228 228 227 226 226 228 231 233 235 237 239 240 239 239 239 240 241 244 247 250 254 259 264 268 272 275 276 276 278 280 283 286 288 289 287 284 281 278 276
274 272 270 268 265 263 260 257 254 251 248 245 243 241 238 236 233 231 228 227 226 225 225 224 224 224 224 225 225 225 226 227 228 228 228 228 228 230 231 232 231 229 227 226 225 224 224 225 226 227 227 227 226 225 227 230 233 235 237 238 238 237 237 238 239 241 245 248 251 255 260 264 268 271 274 275 275 276 280 283 286 288 289 286 282 280 278 276
275 273 271 268 266 263 260 257 254 250 247 244 241 238 235 233 231 229 227 226 225 224 223 223 222 223 223 223 224 224 225 226 226 226 226 227 227 228 230 230 229 227 226 225 224 223 223 224 225 225 226 227 226 225 227 229 231 233 235 236 236 236 237 238 239 241 245 249 252 255 260 264 268 271 272 272 274 276 280 283 287 290 289 286 283 280 278 276
276 274 272 270 267 264 261 257 253 250 246 242 239 236 233 231 229 228 226 225 223 222 222 222 221 221 220 220 221 222 223 224 224 224 225 225 226 227 228 227 226 225 223 223 223 222 222 223 224 224 224 225 225 224 225 227 229 231 232 234 234 235 236 237 238 241 244 248 252 257 261 264 268 270 270 271 273 276 280 285 289 291 289 285 282 280 278 276
279 277 275 272 269 265 260 256 252 248 244 240 237 234 232 230 228 226 225 224 223 222 222 221 220 220 218 217 217 219 220 221 221 222 222 224 224 225 225 224 223 222 221 220 220 220 221 223 223 223 223 224 223 223 223 225 227 229 231 233 234 235 236 236 238 240 244 248 253 257 261 264 267 268 269 271 273 276 281 287 290 289 286 283 280 278 276 274
283 282 279 274 269 263 258 253 248 244 239 236 234 231 230 228 227 226 224 224 223 222 221 221 220 218 216 216 216 216 216 217 218 218 220 222 222 223 223 222 220 219 218 219 219 219 220 222 222 222 223 223 222 222 223 224 226 228 229 231 233 234 235 236 237 240 244 249 253 257 260 264 266 267 268 271 274 278 284 288 288 286 283 281 279 276 275 273
288 285 280 274 267 261 255 249 243 239 235 232 230 228 227 226 226 225 224 223 223 222 221 221 219 217 216 217 216 215 215 214 214 214 216 219 219 219 220 220 219 218 217 216 217 219 220 221 221 220 221 222 221 221 222 223 224 226 228 229 231 233 234 236 238 241 244 249 252 256 260 263 265 266 268 271 275 281 285 287 286 284 282 280 278 276 275 274
290 286 279 272 265 257 250 244 239 235 231 228 226 225 225 224 224 223 222 222 222 222 221 221 219 217 218 218 216 215 215 213 212 211 213 215 216 216 217 217 217 217 216 215 215 216 217 218 218 218 219 220 220 220 220 221 223 225 227 228 230 232 234 235 238 241 244 248 252 256 260 263 264 266 269 273 278 282 285 285 285 284 282 280 278 277 277 277
290 284 277 269 260 252 245 240 235 232 228 226 224 223 222 221 220 220 220 221 221 221 220 220 218 217 218 218 217 216 215 213 213 212 212 213 212 213 214 215 215 215 215 217 216 216 215 216 216 217 218 220 220 220 220 220 222 224 226 227 229 231 233 235 238 241 244 248 252 256 260 261 262 265 270 275 280 282 284 284 284 283 280 278 277 276 277 278
290 283 274 264 255 247 242 237 232 228 225 222 220 218 217 216 216 216 217 218 220 221 220 219 218 217 218 217 217 216 215 214 213 212 212 213 213 213 214 216 216 215 216 218 219 217 216 216 216 216 218 220 221 221 220 221 224 226 227 229 230 232 234 236 239 241 245 249 253 256 258 259 261 265 269 275 279 282 283 283 282 281 279 278 277 277 277 277
288 280 269 259 251 244 238 232 226 222 218 215 213 212 210 210 210 211 213 215 217 219 219 219 219 218 218 218 216 215 214 214 213 212 212 213 213 214 214 215 216 217 218 219 220 219 218 217 217 217 218 219 220 220 220 222 225 227 229 230 231 233 235 237 240 243 246 249 252 254 256 257 260 264 268 274 278 280 281 280 279 278 278 278 278 278 277 276
285 275 264 255 247 239 231 224 217 212 208 205 204 203 202 202 203 204 206 208 212 214 216 217 217 218 218 218 217 215 213 212 211 212 212 212 212 213 213 213 213 214 216 218 218 218 218 218 217 217 217 218 219 219 220 222 224 226 227 228 230 232 234 236 239 242 245 247 250 252 253 255 259 263 268 272 275 276 276 276 276 276 278 278 278 277 276 275
280 268 258 249 239 228 219 212 207 203 200 197 195 194 194 195 196 197 199 200 203 206 208 210 212 215 216 216 215 215 213 212 211 210 211 212 213 213 213 212 211 212 213 214 214 215 216 217 217 217 217 216 216 217 219 221 222 223 224 225 227 229 231 234 236 239 242 245 247 248 251 255 260 263 267 270 271 272 272 272 274 276 276 276 275 275 274 274
272 259 248 238 225 213 207 203 198 193 190 187 186 187 187 186 186 188 190 192 194 196 199 202 205 209 211 212 212 211 210 211 210 210 209 209 210 212 213 211 210 211 213 213 213 213 213 214 214 215 214 214 215 216 218 219 220 222 223 225 227 229 231 233 235 238 240 242 245 248 253 257 260 262 264 265 267 268 269 271 273 274 273 272 272 273 274 275
262 250 238 223 207 200 198 194 188 183 180 179 179 178 176 174 174 175 178 182 184 186 189 193 197 200 203 205 206 206 205 206 206 206 205 203 203 204 206 208 208 209 210 212 213 214 213 212 212 212 212 213 214 215 217 219 220 222 224 227 228 229 230 232 234 236 238 241 246 250 254 257 258 259 261 263 265 267 269 271 272 272 270 270 271 272 274 275
253 242 226 203 191 188 187 183 178 174 174 174 173 169 167 167 168 169 172 173 173 174 178 181 185 187 189 191 194 195 196 197 198 197 196 196 197 197 198 203 207 208 209 210 212 213 213 212 211 211 210 212 213 215 217 219 220 221 223 226 228 228 230 232 234 236 240 243 247 251 255 256 256 257 259 262 265 268 269 269 269 270 270 271 272 273 274 276
244 229 205 186 180 178 177 175 172 170 171 170 166 164 164 164 165 165 165 164 163 166 170 172 172 172 173 177 178 180 182 184 187 188 189 191 193 195 197 202 206 208 209 210 211 211 212 211 211 210 210 211 213 215 217 218 220 222 224 226 228 230 231 234 236 238 240 244 247 251 252 253 255 257 259 262 265 267 268 268 268 268 270 271 272 273 275 277
229 209 189 178 174 172 172 171 169 169 168 164 162 162 162 162 162 160 158 158 160 162 164 164 163 162 165 169 172 174 176 178 180 183 187 189 191 194 197 202 207 208 208 209 209 210 211 210 210 210 211 212 213 215 217 219 221 223 225 228 230 232 233 236 238 239 241 245 248 249 251 253 256 257 259 262 266 267 267 266 267 268 269 270 272 274 276 278
211 194 180 173 171 171 170 169 169 168 164 161 161 161 160 161 161 158 156 158 161 162 162 161 160 160 163 166 170 176 180 182 183 185 188 191 193 195 198 203 207 209 210 210 209 209 209 209 209 210 211 212 214 216 217 219 221 223 225 227 229 231 233 235 238 240 242 245 247 248 250 253 256 256 258 262 265 266 265 265 266 267 268 270 272 274 277 280
198 184 175 172 172 171 170 170 169 166 162 161 161 160 160 162 161 159 160 162 163 163 162 161 161 161 163 168 173 177 182 186 190 192 194 196 197 199 201 205 209 211 211 210 209 208 209 208 209 210 211 212 214 216 218 220 221 223 225 227 229 231 232 235 237 240 241 243 246 248 250 253 256 257 259 262 264 264 264 265 266 268 269 271 273 276 279 283
187 178 173 172 171 171 170 171 168 164 162 162 161 162 163 165 164 163 163 163 162 163 163 162 163 163 166 172 177 180 183 187 191 194 198 200 201 203 205 207 209 209 208 208 208 208 209 210 210 211 212 213 214 217 219 220 222 223 225 228 229 231 233 235 238 240 241 243 246 249 251 254 256 257 258 260 262 263 264 265 267 269 271 273 275 278 281 283
183 176 172 171 171 172 171 170 165 163 164 164 163 165 167 169 168 166 163 161 161 163 164 164 166 168 171 175 178 181 184 187 190 192 196 199 200 201 203 205 205 205 205 206 208 209 209 210 211 212 214 215 216 218 221 221 222 224 226 228 230 232 233 235 237 239 241 244 247 249 252 254 255 255 257 259 261 263 265 267 269 271 273 276 277 279 281 284
181 175 172 171 172 174 172 168 165 165 166 166 166 169 171 172 169 165 161 161 163 166 167 168 171 174 177 179 180 182 185 188 191 193 195 197 198 200 202 203 204 204 204 206 208 209 210 210 211 212 215 217 218 221 223 224 224 225 227 229 231 232 233 235 236 238 241 244 246 248 250 252 253 255 257 259 261 264 267 270 272 274 276 277 279 280 283 286
180 174 173 173 174 175 173 168 166 167 168 168 169 172 173 171 167 163 162 163 166 168 170 172 175 177 181 183 185 187 189 190 193 194 195 196 198 200 203 204 204 204 205 206 208 210 211 210 210 212 214 217 219 221 223 225 226 227 229 230 231 232 233 235 236 238 240 243 245 246 249 251 252 255 257 259 262 266 269 272 274 276 277 278 279 281 284 286
178 174 173 173 175 176 173 168 168 170 171 171 173 174 173 170 167 165 165 167 169 172 175 177 180 182 185 187 188 190 193 194 195 195 196 197 199 201 203 204 205 206 206 207 208 210 212 211 211 212 214 216 217 219 221 223 224 226 228 230 231 231 233 235 237 238 240 242 244 246 248 250 252 255 257 260 264 268 271 273 274 276 277 277 279 281 283 283
177 174 173 173 174 175 172 168 170 173 175 176 177 177 176 173 170 169 170 172 174 176 179 181 184 186 188 190 191 193 195 196 197 197 197 197 199 201 203 205 206 207 208 209 210 211 213 212 213 214 216 217 218 219 220 222 223 224 226 228 230 231 232 234 236 238 240 242 243 245 248 250 253 255 258 261 265 268 270 272 274 275 275 276 278 281 281 282
178 174 174 173 173 174 171 168 170 175 177 179 180 180 179 177 174 173 174 176 178 179 180 182 184 186 189 191 193 195 197 199 199 199 199 199 200 201 202 204 206 207 209 210 211 212 213 214 215 216 217 218 218 219 221 222 223 223 225 227 230 231 232 234 236 238 240 242 244 247 249 252 255 257 259 262 265 266 268 270 272 272 273 276 278 279 279 281
178 175 174 174 173 172 170 169 171 175 177 179 180 180 179 177 175 175 175 177 179 180 181 183 185 187 189 191 192 195 197 199 200 201 202 202 202 202 202 203 204 206 208 210 211 213 214 214 215 217 218 219 220 221 222 223 223 224 225 227 230 232 234 235 237 239 242 244 246 249 250 252 255 257 259 261 262 264 267 269 270 271 274 277 277 277 279 281
179 176 174 174 172 171 171 172 175 177 178 180 181 181 180 178 177 178 179 180 181 182 183 184 185 187 189 190 192 195 196 198 199 201 203 205 206 206 206 206 206 207 208 210 211 213 214 214 215 216 218 219 220 221 223 224 225 226 227 229 231 234 236 238 240 241 243 245 247 249 250 251 254 256 258 260 262 265 267 268 269 272 274 276 276 277 279 280
180 177 174 172 171 172 174 176 178 179 182 184 185 184 183 182 181 182 183 184 184 185 185 186 186 187 188 189 192 195 198 198 199 200 203 205 206 207 208 210 210 210 211 212 213 214 216 216 217 218 219 219 221 222 223 225 226 227 229 231 233 235 237 239 241 242 244 246 247 249 251 252 254 256 259 261 263 265 267 268 269 272 273 274 275 277 278 278
180 176 172 171 172 174 177 179 181 183 185 186 187 187 186 185 185 186 187 187 188 188 189 189 189 189 189 190 191 194 198 200 201 203 204 206 207 208 209 210 212 213 214 215 216 217 218 219 219 220 221 222 223 224 225 226 228 229 230 232 234 236 238 240 242 243 245 247 249 250 251 252 254 256 258 261 263 265 266 268 270 271 272 274 276 278 278 277
Height
10585 10585 10585 10586 10586 10587 10587 10588 10589 10591 10593 10595 10597 10600 10602 10605 10608 10610 10613 10616 10619 10623 10625 10628 10630 10633 10638 10642 10646 10649 10653 10658 10662 10668 10666 10661 10670 10679 10685 10691 10693 10696 10699 10703 10708 10711 10716 10720 10723 10726 10728 10731 10733 10737 10741 10743 10746 10747 10747 10749 10752 10757 10764 10768 10769 10771 10772 10774 10776 10780 10782 10784 10784 10784 10784 10785 10785 10784 10784 10785 10786 10785 10783 10784 10784 10785 10786 10788
10577 10577 10577 10577 10578 10578 10578 10579 10580 10581 10583 10585 10587 10590 10593 10596 10599 10602 10605 10608 10611 10614 10617 10619 10622 10626 10630 10635 10638 10642 10647 10651 10656 10658 10651 10653 10667 10674 10677 10683 10684 10686 10690 10695 10701 10705 10710 10715 10718 10720 10723 10726 10728 10732 10736 10738 10740 10740 10741 10744 10747 10754 10761 10763 10765 10767 10768 10770 10772 10774 10776 10777 10778 10778 10779 10780 10779 10779 10779 10780 10781 10781 10780 10779 10779 10780 10781 10783
10568 10568 10568 10568 10568 10569 10569 10570 10571 10572 10573 10575 10577 10580 10583 10586 10590 10593 10596 10599 10603 10606 10609 10611 10614 10618 10623 10628 10631 10635 10639 10644 10650 10646 10641 10652 10662 10665 10669 10673 10674 10677 10683 10688 10695 10700 10704 10709 10712 10714 10717 10719 10722 10727 10730 10733 10733 10733 10735 10737 10742 10752 10757 10758 10760 10762 10764 10766 10767 10768 10770 10771 10772 10773 10773 10774 10773 10773 10773 10774 10776 10777 10776 10775 10775 10775 10776 10777
10560 10559 10559 10559 10559 10559 10560 10560 10561 10562 10563 10565 10567 10569 10572 10576 10580 10584 10587 10591 10594 10597 10600 10602 10606 10611 10616 10620 10623 10628 10632 10638 10641 10634 10637 10650 10654 10657 10661 10663 10666 10670 10676 10682 10687 10693 10696 10702 10706 10707 10710 10712 10716 10720 10724 10725 10725 10727 10728 10732 10740 10750 10752 10752 10755 10757 10759 10760 10761 10762 10764 10766 10767 10768 10768 10768 10767 10766 10767 10769 10771 10773 10772 10771 10771 10771 10770 10770
10551 10551 10550 10550 10550 10550 10550 10550 10551 10552 10553 10555 10556 10559 10561 10565 10569 10574 10578 10582 10586 10589 10591 10594 10598 10603 10608 10612 10616 10620 10625 10631 10632 10627 10633 10643 10646 10651 10652 10655 10660 10664 10671 10675 10680 10686 10690 10695 10699 10701 10703 10705 10709 10714 10717 10717 10719 10720 10722 10730 10740 10745 10745 10747 10750 10752 10753 10754 10755 10757 10759 10761 10762 10763 10763 10762 10761 10760 10761 10763 10766 10767 10768 10767 10767 10766 10764 10763
10542 10541 10541 10541 10541 10541 10540 10540 10541 10542 10543 10544 10546 10549 10551 10555 10559 10563 10568 10572 10576 10579 10582 10585 10589 10595 10600 10604 10609 10613 10618 10624 10623 10620 10627 10635 10640 10643 10644 10649 10653 10658 10664 10667 10671 10678 10683 10688 10691 10693 10696 10699 10703 10707 10709 10712 10715 10716 10720 10729 10735 10738 10739 10742 10745 10746 10747 10748 10749 10751 10753 10755 10757 10758 10758 10756 10756 10756 10757 10758 10760 10762 10763 10763 10763 10761 10759 10758
10532 10532 10532 10531 10531 10531 10531 10531 10531 10532 10532 10534 10536 10538 10541 10544 10548 10553 10557 10562 10566 10569 10573 10577 10581 10587 10591 10596 10601 10606 10613 10615 10611 10612 10620 10628 10634 10637 10638 10643 10647 10651 10656 10659 10663 10670 10675 10680 10682 10686 10689 10693 10698 10700 10703 10708 10711 10712 10718 10725 10729 10732 10734 10737 10740 10741 10741 10742 10744 10745 10747 10750 10751 10753 10752 10751 10752 10752 10752 10753 10754 10756 10758 10758 10757 10756 10754 10753
10522 10522 10522 10522 10522 10521 10521 10521 10521 10522 10522 10523 10525 10527 10530 10533 10537 10542 10546 10551 10555 10559 10564 10567 10573 10579 10583 10589 10594 10601 10606 10601 10601 10609 10615 10622 10628 10630 10632 10637 10641 10644 10648 10651 10656 10663 10669 10673 10675 10679 10683 10688 10691 10693 10699 10706 10707 10708 10714 10719 10724 10727 10729 10732 10734 10734 10735 10736 10738 10740 10742 10744 10746 10747 10747 10748 10749 10747 10746 10747 10749 10751 10752 10752 10751 10750 10749 10749
10513 10512 10512 10512 10511 10511 10511 10511 10511 10511 10512 10513 10514 10516 10519 10523 10527 10531 10536 10540 10544 10549 10553 10558 10565 10570 10575 10582 10587 10595 10595 10588 10596 10606 10608 10613 10619 10623 10626 10630 10634 10637 10641 10645 10650 10657 10662 10665 10667 10671 10676 10681 10685 10689 10697 10703 10701 10702 10709 10715 10720 10723 10724 10726 10727 10727 10728 10731 10733 10734 10736 10738 10740 10741 10742 10744 10743 10741 10741 10742 10743 10745 10746 10746 10746 10744 10743 10745
10503 10502 10502 10501 10501 10501 10500 10500 10500 10500 10501 10502 10504 10505 10508 10512 10516 10520 10525 10528 10533 10538 10542 10549 10555 10561 10568 10574 10581 10588 10582 10580 10593 10599 10599 10605 10612 10616 10620 10623 10627 10630 10635 10639 10644 10649 10651 10654 10659 10664 10670 10676 10681 10686 10695 10697 10694 10698 10705 10712 10715 10716 10717 10720 10720 10721 10723 10726 10727 10728 10731 10733 10734 10736 10738 10738 10737 10735 10737 10738 10738 10738 10740 10740 10739 10738 10738 10739
10492 10492 10491 10490 10490 10490 10489 10489 10489 10490 10491 10492 10493 10495 10497 10501 10505 10510 10514 10517 10523 10527 10532 10539 10545 10553 10559 10565 10576 10577 10570 10575 10586 10590 10593 10598 10604 10609 10613 10617 10621 10625 10629 10633 10636 10639 10642 10647 10654 10660 10666 10672 10676 10683 10690 10690 10688 10694 10702 10707 10709 10709 10712 10714 10714 10715 10718 10719 10721 10724 10726 10727 10730 10731 10732 10732 10730 10730 10732 10733 10732 10733 10734 10734 10733 10732 10732 10733
10481 10481 10480 10479 10479 10478 10478 10478 10478 10479 10480 10481 10483 10484 10486 10490 10494 10499 10503 10508 10512 10516 10522 10528 10536 10543 10549 10559 10567 10561 10560 10571 10579 10583 10586 10591 10597 10601 10606 10610 10613 10618 10622 10625 10627 10631 10636 10642 10649 10655 10660 10666 10671 10679 10685 10683 10684 10690 10697 10701 10702 10704 10706 10707 10708 10710 10713 10714 10717 10720 10720 10722 10725 10725 10726 10726 10725 10725 10726 10727 10727 10727 10728 10728 10727 10726 10726 10728
10470 10469 10468 10468 10467 10467 10466 10466 10467 10467 10468 10470 10471 10473 10476 10479 10483 10488 10493 10498 10501 10506 10512 10518 10527 10533 10542 10553 10551 10548 10557 10566 10572 10576 10578 10582 10588 10592 10597 10602 10605 10610 10614 10616 10619 10625 10631 10637 10643 10649 10656 10662 10667 10675 10679 10678 10679 10685 10691 10695 10696 10698 10699 10700 10702 10705 10708 10710 10712 10715 10715 10718 10720 10720 10721 10721 10719 10719 10720 10720 10721 10721 10721 10721 10721 10720 10721 10723
10458 10457 10456 10455 10455 10454 10454 10454 10455 10456 10457 10459 10460 10462 10465 10469 10474 10478 10483 10487 10491 10496 10502 10509 10518 10525 10536 10541 10535 10541 10553 10558 10564 10567 10568 10573 10577 10582 10588 10592 10597 10602 10605 10608 10614 10620 10625 10631 10638 10644 10652 10657 10662 10670 10672 10671 10674 10679 10686 10690 10690 10692 10692 10694 10698 10701 10704 10705 10707 10710 10710 10713 10715 10716 10716 10715 10714 10714 10714 10715 10715 10715 10714 10714 10714 10714 10716 10719
10446 10445 10444 10443 10442 10442 10442 10442 10443 10444 10445 10447 10449 10451 10454 10459 10464 10468 10472 10476 10481 10486 10492 10501 10509 10517 10527 10527 10524 10536 10546 10550 10554 10554 10558 10565 10568 10573 10579 10584 10590 10596 10599 10604 10610 10616 10621 10627 10633 10639 10646 10650 10657 10664 10665 10666 10669 10675 10682 10684 10684 10684 10684 10689 10694 10697 10700 10701 10703 10705 10704 10708 10711 10711 10711 10710 10709 10709 10709 10709 10709 10708 10708 10708 10707 10708 10710 10713
10433 10432 10431 10430 10430 10430 10430 10430 10431 10432 10434 10435 10437 10440 10444 10450 10454 10458 10462 10467 10472 10477 10485 10493 10499 10508 10515 10514 10518 10531 10538 10538 10539 10542 10551 10557 10560 10566 10571 10579 10586 10590 10593 10599 10605 10612 10617 10624 10629 10633 10638 10644 10652 10658 10659 10660 10664 10671 10677 10677 10676 10676 10679 10686 10690 10693 10697 10698 10699 10700 10700 10703 10705 10705 10705 10704 10705 10705 10704 10703 10703 10703 10702 10702 10701 10702 10704 10707
10420 10419 10419 10418 10417 10417 10417 10418 10419 10420 10422 10424 10427 10430 10435 10440 10444 10448 10453 10458 10463 10469 10476 10483 10490 10498 10504 10505 10512 10522 10525 10525 10528 10537 10545 10547 10553 10559 10565 10573 10578 10582 10587 10594 10602 10608 10614 10620 10623 10627 10633 10639 10646 10650 10653 10656 10661 10667 10669 10667 10668 10671 10676 10683 10687 10691 10693 10693 10694 10694 10696 10697 10698 10698 10699 10700 10701 10701 10699 10698 10697 10697 10697 10696 10696 10697 10699 10701
10408 10407 10406 10405 10405 10405 10405 10406 10407 10408 10411 10413 10416 10421 10426 10430 10434 10440 10445 10449 10455 10461 10468 10475 10481 10489 10494 10496 10503 10510 10513 10516 10524 10532 10535 10540 10548 10553 10558 10565 10570 10576 10582 10591 10598 10604 10610 10615 10618 10622 10627 10633 10639 10645 10650 10652 10653 10657 10658 10659 10662 10667 10673 10680 10684 10687 10688 10688 10688 10688 10689 10690 10691 10694 10696 10697 10697 10695 10694 10693 10692 10691 10691 10691 10690 10691 10693 10694
10396 10395 10394 10393 10393 10392 10393 10394 10396 10398 10401 10403 10407 10412 10417 10420 10426 10432 10438 10442 10448 10454 10459 10464 10471 10478 10481 10484 10493 10501 10506 10510 10518 10524 10527 10535 10542 10546 10551 10558 10564 10571 10579 10587 10594 10600 10606 10609 10613 10618 10622 10628 10633 10638 10642 10641 10642 10647 10651 10655 10659 10664 10671 10677 10679 10682 10683 10681 10681 10681 10683 10685 10689 10692 10693 10692 10691 10689 10688 10687 10687 10687 10687 10685 10684 10685 10686 10686
10385 10383 10382 10381 10381 10381 10383 10384 10386 10388 10390 10394 10398 10402 10407 10413 10419 10426 10432 10437 10440 10443 10449 10455 10461 10466 10470 10477 10487 10493 10496 10502 10510 10516 10520 10528 10535 10539 10544 10550 10558 10565 10574 10582 10588 10594 10600 10604 10608 10612 10615 10619 10623 10629 10632 10631 10635 10642 10647 10651 10655 10661 10668 10672 10674 10677 10676 10674 10673 10675 10679 10683 10687 10689 10688 10686 10685 10683 10683 10682 10682 10682 10682 10680 10679 10679 10679 10679
10373 10372 10371 10370 10370 10371 10373 10374 10376 10378 10381 10385 10389 10393 10400 10407 10413 10419 10424 10427 10429 10435 10441 10445 10452 10458 10464 10471 10479 10484 10489 10496 10504 10508 10513 10520 10527 10532 10537 10545 10552 10560 10568 10575 10581 10588 10594 10599 10602 10604 10607 10609 10613 10620 10622 10624 10630 10638 10643 10647 10651 10658 10663 10665 10668 10671 10669 10666 10668 10671 10676 10681 10684 10684 10681 10680 10679 10678 10678 10677 10677 10677 10677 10676 10674 10674 10674 10674
10362 10361 10361 10360 10360 10361 10362 10364 10366 10368 10371 10375 10380 10386 10394 10399 10404 10408 10412 10415 10419 10426 10431 10436 10444 10450 10455 10462 10469 10476 10482 10489 10494 10500 10506 10514 10520 10525 10531 10539 10546 10553 10561 10568 10575 10583 10589 10593 10594 10596 10599 10602 10607 10613 10616 10621 10628 10634 10639 10642 10647 10653 10656 10659 10663 10665 10661 10660 10663 10669 10674 10678 10679 10678 10676 10675 10674 10673 10673 10672 10671 10672 10672 10671 10669 10669 10669 10668
10352 10352 10351 10351 10351 10351 10352 10354 10356 10359 10362 10367 10372 10379 10385 10388 10393 10397 10402 10405 10411 10418 10424 10430 10435 10440 10447 10454 10461 10469 10474 10479 10485 10493 10500 10507 10512 10518 10525 10532 10538 10546 10554 10562 10569 10575 10581 10585 10586 10589 10592 10595 10602 10607 10613 10619 10625 10630 10633 10637 10642 10646 10649 10654 10659 10658 10654 10655 10660 10666 10671 10673 10673 10672 10671 10670 10669 10668 10669 10668 10667 10667 10667 10666 10664 10664 10663 10663
10343 10342 10342 10341 10341 10342 10342 10343 10346 10348 10352 10358 10363 10369 10373 10377 10382 10387 10392 10397 10404 10412 10417 10422 10428 10435 10442 10449 10456 10463 10466 10471 10480 10487 10494 10500 10504 10511 10518 10525 10531 10539 10547 10554 10560 10567 10573 10576 10578 10580 10584 10590 10597 10603 10609 10615 10619 10623 10627 10631 10636 10639 10644 10650 10653 10652 10650 10651 10656 10663 10667 10668 10667 10666 10665 10664 10664 10664 10664 10664 10663 10662 10661 10660 10659 10659 10659 10658
10335 10333 10333 10332 10331 10331 10331 10332 10334 10337 10342 10347 10352 10357 10361 10367 10372 10377 10383 10390 10398 10405 10410 10417 10425 10431 10438 10447 10453 10456 10459 10467 10476 10482 10488 10492 10497 10505 10511 10517 10525 10532 10539 10545 10552 10560 10566 10568 10569 10573 10579 10586 10594 10599 10604 10608 10613 10617 10622 10625 10629 10633 10639 10644 10647 10647 10646 10648 10653 10659 10662 10662 10662 10660 10659 10659 10659 10659 10660 10660 10659 10658 10656 10655 10654 10654 10654 10654
10326 10325 10323 10322 10321 10320 10319 10320 10323 10326 10330 10335 10340 10345 10351 10357 10362 10368 10375 10383 10391 10398 10405 10413 10419 10427 10437 10443 10444 10447 10455 10463 10469 10476 10481 10484 10491 10498 10504 10511 10517 10524 10531 10537 10544 10553 10558 10559 10562 10569 10576 10583 10589 10593 10597 10602 10608 10613 10617 10619 10623 10629 10634 10638 10642 10643 10643 10645 10650 10654 10656 10657 10656 10655 10654 10653 10654 10655 10656 10656 10655 10653 10652 10651 10651 10650 10650 10650
10317 10315 10313 10311 10310 10309 10309 10310 10312 10315 10318 10322 10328 10333 10339 10345 10351 10360 10369 10377 10385 10393 10400 10407 10414 10424 10431 10430 10435 10444 10451 10456 10463 10471 10474 10478 10486 10493 10499 10506 10511 10517 10524 10531 10539 10546 10550 10552 10559 10567 10574 10580 10585 10588 10592 10598 10604 10609 10610 10612 10617 10623 10628 10633 10637 10639 10640 10643 10646 10648 10650 10651 10651 10649 10648 10648 10649 10650 10652 10652 10650 10648 10647 10646 10646 10646 10646 10646
10308 10306 10303 10301 10301 10301 10301 10301 10303 10305 10309 10313 10317 10322 10328 10335 10344 10355 10364 10372 10380 10387 10394 10400 10409 10418 10420 10423 10433 10440 10442 10449 10458 10464 10466 10472 10481 10488 10496 10502 10507 10512 10518 10526 10534 10539 10542 10548 10556 10563 10569 10575 10580 10581 10585 10592 10599 10601 10602 10606 10613 10617 10622 10628 10632 10634 10637 10639 10641 10643 10645 10645 10645 10643 10643 10644 10645 10646 10647 10646 10645 10643 10642 10641 10641 10641 10641 10641
10300 10298 10296 10294 10293 10294 10294 10294 10296 10298 10302 10305 10310 10315 10321 10329 10339 10349 10358 10366 10372 10378 10386 10394 10404 10412 10414 10421 10429 10431 10436 10446 10452 10455 10460 10469 10478 10485 10490 10494 10499 10506 10513 10520 10524 10527 10534 10543 10550 10558 10564 10569 10570 10572 10578 10588 10592 10593 10596 10603 10608 10612 10617 10622 10627 10630 10633 10635 10637 10639 10640 10640 10639 10637 10637 10639 10641 10641 10641 10640 10639 10639 10638 10637 10636 10636 10636 10635
10293 10291 10289 10288 10288 10288 10288 10289 10291 10294 10297 10301 10305 10310 10317 10325 10333 10342 10350 10357 10362 10369 10378 10386 10396 10403 10407 10415 10421 10425 10434 10442 10446 10452 10459 10466 10473 10478 10481 10485 10492 10502 10511 10514 10516 10523 10532 10540 10547 10555 10559 10561 10562 10567 10576 10582 10583 10585 10593 10600 10604 10608 10612 10618 10622 10625 10628 10630 10632 10635 10635 10633 10633 10634 10633 10634 10635 10635 10635 10634 10634 10634 10633 10633 10632 10632 10632 10631
10287 10286 10284 10283 10283 10283 10284 10286 10288 10291 10294 10298 10302 10308 10314 10320 10327 10334 10342 10349 10355 10362 10371 10379 10388 10396 10402 10407 10413 10421 10431 10437 10443 10452 10458 10463 10468 10472 10477 10485 10494 10502 10507 10510 10516 10526 10534 10539 10546 10551 10553 10556 10560 10566 10574 10577 10579 10585 10593 10598 10602 10605 10609 10615 10618 10621 10624 10626 10629 10631 10630 10629 10630 10631 10630 10630 10629 10628 10628 10629 10629 10629 10628 10628 10628 10628 10628 10628
10283 10281 10280 10280 10280 10281 10282 10284 10286 10288 10291 10295 10300 10305 10311 10316 10322 10329 10335 10342 10348 10355 10364 10373 10382 10389 10393 10397 10405 10415 10425 10432 10442 10450 10454 10460 10466 10471 10479 10487 10494 10501 10505 10509 10517 10527 10533 10537 10542 10544 10547 10553 10559 10565 10570 10574 10579 10585 10592 10596 10599 10602 10606 10611 10615 10618 10621 10622 10624 10626 10625 10626 10627 10627 10627 10627 10625 10624 10623 10624 10624 10624 10624 10624 10624 10624 10624 10624
10279 10278 10277 10277 10277 10279 10280 10282 10284 10286 10289 10293 10297 10303 10308 10312 10317 10323 10329 10336 10343 10350 10358 10366 10374 10379 10382 10390 10401 10410 10419 10427 10437 10444 10450 10456 10461 10468 10476 10483 10490 10496 10500 10506 10515 10523 10528 10532 10535 10539 10545 10552 10557 10562 10568 10572 10576 10582 10587 10591 10594 10598 10602 10607 10611 10614 10615 10617 10619 10620 10620 10622 10624 10624 10624 10624 10622 10620 10619 10619 10620 10620 10620 10620 10620 10620 10620 10619
10276 10275 10274 10275 10276 10277 10278 10280 10282 10285 10288 10292 10296 10300 10304 10309 10314 10320 10326 10332 10338 10345 10351 10357 10364 10370 10377 10386 10397 10407 10417 10424 10431 10437 10445 10452 10459 10466 10473 10480 10486 10489 10493 10500 10510 10517 10522 10527 10532 10537 10543 10549 10553 10558 10563 10566 10570 10573 10578 10581 10585 10591 10596 10601 10605 10607 10609 10612 10613 10614 10616 10619 10621 10621 10621 10619 10618 10617 10615 10615 10616 10617 10617 10616 10616 10616 10615 10615
10273 10272 10272 10273 10275 10276 10277 10279 10281 10284 10288 10291 10295 10298 10303 10309 10314 10320 10325 10330 10334 10339 10346 10352 10358 10365 10374 10383 10392 10402 10412 10419 10426 10434 10442 10450 10458 10464 10470 10476 10481 10484 10490 10498 10505 10511 10516 10521 10527 10532 10538 10543 10548 10552 10556 10560 10563 10566 10570 10574 10580 10587 10591 10595 10599 10602 10604 10606 10608 10610 10613 10616 10617 10617 10616 10615 10614 10612 10611 10611 10613 10614 10614 10613 10612 10611 10611 10611
10271 10271 10271 10273 10274 10275 10277 10279 10281 10284 10287 10290 10294 10299 10304 10308 10313 10318 10323 10327 10333 10339 10345 10351 10357 10364 10373 10382 10391 10399 10407 10414 10422 10430 10439 10446 10452 10458 10465 10471 10475 10480 10487 10495 10501 10507 10512 10516 10521 10526 10532 10537 10541 10547 10551 10554 10558 10562 10567 10571 10576 10582 10586 10589 10594 10598 10600 10601 10604 10607 10610 10612 10613 10612 10611 10610 10609 10608 10608 10608 10609 10609 10609 10609 10608 10607 10606 10606
10269 10270 10271 10272 10274 10275 10278 10280 10282 10285 10287 10290 10295 10300 10304 10307 10312 10316 10322 10328 10335 10341 10347 10352 10359 10368 10376 10384 10392 10400 10407 10414 10420 10427 10434 10442 10448 10455 10461 10466 10470 10476 10483 10490 10496 10502 10507 10511 10516 10521 10527 10532 10537 10543 10546 10549 10554 10558 10562 10565 10569 10576 10581 10584 10589 10593 10596 10598 10601 10604 10606 10607 10607 10607 10606 10605 10604 10605 10605 10605 10605 10604 10604 10604 10603 10603 10602 10601
10269 10269 10271 10272 10274 10276 10279 10281 10283 10285 10288 10293 10298 10302 10305 10309 10313 10318 10325 10332 10338 10344 10350 10356 10363 10371 10378 10385 10393 10400 10407 10415 10421 10427 10432 10439 10446 10453 10458 10462 10466 10472 10479 10486 10492 10498 10502 10507 10512 10518 10523 10528 10534 10538 10542 10545 10550 10553 10556 10560 10566 10573 10577 10580 10585 10589 10591 10594 10597 10600 10601 10602 10602 10602 10601 10599 10599 10601 10601 10601 10601 10600 10600 10599 10598 10598 10597 10595
10268 10269 10271 10272 10275 10277 10280 10282 10284 10287 10291 10296 10301 10304 10307 10311 10315 10321 10328 10335 10341 10346 10353 10360 10367 10374 10381 10387 10395 10402 10410 10416 10422 10428 10434 10440 10446 10451 10456 10460 10464 10470 10477 10484 10490 10494 10499 10504 10509 10514 10519 10525 10530 10534 10538 10542 10546 10550 10554 10559 10565 10569 10573 10576 10580 10584 10587 10589 10592 10595 10596 10596 10597 10597 10596 10594 10594 10595 10596 10595 10596 10596 10595 10594 10593 10592 10591 10590
10268 10269 10271 10273 10275 10278 10281 10283 10286 10290 10295 10299 10303 10306 10310 10314 10318 10323 10330 10336 10342 10348 10355 10362 10369 10375 10383 10391 10398 10404 10410 10416 10421 10428 10434 10439 10445 10449 10455 10459 10464 10470 10477 10482 10487 10491 10496 10501 10506 10511 10516 10522 10527 10532 10536 10539 10542 10548 10553 10557 10561 10564 10568 10572 10574 10578 10582 10585 10587 10589 10591 10591 10591 10592 10592 10590 10589 10589 10590 10589 10589 10590 10590 10589 10588 10587 10586 10584
10268 10269 10271 10274 10277 10279 10282 10284 10287 10292 10298 10301 10305 10309 10313 10316 10321 10326 10331 10336 10343 10350 10357 10363 10370 10377 10385 10393 10400 10405 10411 10417 10423 10428 10433 10438 10444 10449 10454 10459 10464 10470 10475 10481 10486 10490 10494 10498 10503 10508 10513 10519 10524 10528 10531 10535 10540 10546 10550 10552 10555 10559 10563 10567 10569 10573 10577 10579 10581 10583 10585 10585 10586 10588 10587 10584 10582 10582 10582 10583 10583 10584 10584 10584 10583 10582 10580 10579
10268 10269 10272 10276 10279 10281 10283 10286 10291 10296 10300 10304 10308 10311 10314 10318 10323 10327 10332 10339 10347 10354 10360 10367 10374 10380 10386 10392 10399 10406 10412 10418 10423 10428 10433 10438 10443 10448 10453 10457 10462 10467 10473 10478 10483 10487 10491 10495 10500 10506 10512 10517 10521 10524 10528 10533 10539 10543 10545 10547 10552 10556 10560 10563 10565 10568 10571 10573 10575 10577 10579 10580 10581 10581 10580 10578 10576 10575 10575 10577 10578 10578 10578 10578 10578 10577 10576 10574
10267 10269 10273 10277 10280 10283 10285 10290 10295 10300 10303 10306 10309 10312 10315 10319 10324 10330 10337 10344 10351 10358 10364 10371 10377 10382 10387 10392 10398 10405 10411 10417 10422 10427 10432 10436 10441 10446 10449 10453 10459 10465 10470 10475 10479 10483 10487 10492 10499 10505 10510 10514 10519 10522 10526 10531 10536 10539 10541 10544 10548 10552 10555 10558 10560 10563 10565 10568 10570 10572 10573 10574 10574 10573 10573 10572 10570 10569 10569 10571 10572 10573 10573 10573 10573 10572 10571 10570
10266 10269 10273 10277 10281 10284 10287 10292 10298 10303 10306 10309 10311 10314 10317 10322 10328 10335 10342 10349 10355 10361 10367 10373 10378 10383 10388 10393 10398 10404 10409 10414 10419 10424 10429 10434 10439 10443 10447 10451 10457 10462 10467 10471 10475 10480 10484 10490 10497 10502 10507 10512 10517 10521 10525 10529 10533 10535 10537 10540 10544 10547 10550 10553 10555 10558 10561 10563 10565 10566 10567 10566 10566 10566 10566 10565 10564 10564 10564 10565 10567 10568 10568 10568 10567 10567 10566 10565
10266 10269 10274 10278 10282 10285 10289 10294 10300 10305 10309 10312 10314 10317 10321 10327 10334 10341 10346 10352 10358 10363 10369 10374 10379 10384 10389 10394 10399 10404 10408 10412 10417 10422 10427 10431 10436 10441 10445 10450 10455 10460 10464 10468 10472 10476 10481 10487 10494 10499 10504 10508 10513 10517 10521 10525 10528 10530 10532 10535 10538 10542 10544 10547 10550 10553 10556 10557 10559 10559 10560 10560 10560 10561 10560 10559 10559 10559 10560 10561 10562 10563 10563 10563 10563 10562 10561 10560
10267 10270 10274 10279 10284 10288 10292 10297 10302 10307 10311 10314 10317 10321 10326 10332 10340 10345 10350 10355 10360 10365 10370 10375 10380 10384 10389 10393 10398 10402 10407 10411 10415 10420 10424 10429 10434 10438 10443 10447 10452 10457 10461 10465 10470 10474 10479 10485 10491 10495 10498 10502 10506 10510 10514 10517 10520 10524 10526 10529 10532 10536 10538 10541 10544 10547 10549 10551 10552 10553 10554 10553 10554 10555 10555 10555 10555 10555 10555 10557 10557 10558 10558 10558 10558 10557 10556 10555
10267 10270 10274 10279 10284 10290 10295 10300 10305 10310 10314 10317 10320 10325 10330 10336 10343 10348 10353 10358 10361 10366 10370 10375 10379 10384 10388 10393 10397 10401 10405 10409 10413 10417 10422 10426 10431 10435 10440 10445 10449 10454 10458 10463 10467 10472 10476 10482 10487 10490 10493 10497 10501 10504 10507 10509 10513 10517 10520 10523 10525 10529 10532 10535 10537 10540 10542 10544 10546 10547 10547 10548 10550 10551 10551 10551 10551 10551 10551 10552 10552 10552 10553 10553 10553 10552 10551 10550
10267 10270 10274 10279 10284 10290 10296 10301 10307 10312 10316 10320 10324 10329 10334 10339 10345 10350 10355 10359 10363 10366 10370 10375 10379 10383 10387 10391 10395 10400 10404 10408 10412 10416 10420 10424 10428 10432 10437 10441 10445 10450 10455 10459 10464 10468 10472 10478 10482 10484 10488 10492 10495 10498 10501 10503 10508 10511 10514 10517 10519 10522 10525 10528 10531 10533 10536 10538 10540 10541 10543 10544 10545 10545 10546 10547 10547 10546 10546 10546 10547 10547 10548 10547 10547 10547 10546 10545
10266 10270 10275 10280 10285 10291 10297 10303 10308 10313 10318 10323 10327 10332 10337 10341 10346 10351 10355 10358 10362 10366 10370 10374 10378 10382 10386 10390 10394 10398 10402 10406 10410 10415 10419 10423 10427 10430 10434 10437 10441 10445 10449 10454 10458 10463 10467 10472 10476 10479 10483 10486 10490 10493 10495 10498 10502 10506 10508 10511 10513 10516 10519 10522 10525 10528 10531 10533 10534 10536 10539 10539 10539 10539 10540 10541 10542 10541 10541 10541 10542 10542 10543 10542 10542 10543 10542 10541
10266 10270 10275 10281 10288 10294 10300 10305 10309 10314 10320 10324 10328 10332 10337 10341 10346 10350 10354 10357 10361 10365 10368 10372 10376 10380 10384 10389 10393 10396 10400 10404 10408 10413 10417 10421 10425 10429 10433 10436 10439 10442 10445 10449 10454 10458 10462 10466 10470 10474 10477 10480 10484 10488 10490 10493 10497 10500 10503 10506 10508 10511 10514 10517 10520 10523 10525 10527 10528 10531 10532 10533 10533 10533 10534 10536 10536 10536 10535 10535 10536 10537 10538 10537 10537 10538 10537 10536
10266 10271 10277 10283 10290 10296 10301 10305 10310 10315 10320 10324 10328 10332 10336 10341 10345 10348 10352 10356 10360 10364 10367 10371 10375 10379 10383 10387 10392 10396 10400 10403 10407 10411 10414 10418 10422 10427 10431 10434 10437 10440 10443 10447 10451 10455 10458 10462 10466 10469 10472 10475 10478 10482 10485 10488 10491 10494 10498 10501 10504 10507 10509 10511 10514 10516 10519 10521 10522 10524 10526 10526 10527 10528 10529 10530 10530 10529 10529 10529 10531 10532 10532 10532 10532 10532 10532 10531
10268 10273 10279 10285 10291 10296 10301 10305 10310 10314 10319 10323 10328 10333 10337 10341 10345 10348 10352 10356 10360 10364 10368 10372 10375 10378 10382 10386 10390 10395 10399 10403 10406 10409 10412 10416 10419 10423 10427 10431 10434 10438 10441 10445 10448 10452 10455 10459 10462 10465 10468 10471 10474 10477 10480 10482 10485 10489 10493 10497 10499 10501 10503 10506 10508 10510 10512 10514 10516 10518 10518 10520 10521 10523 10524 10524 10523 10523 10523 10523 10525 10526 10527 10527 10527 10527 10526 10526